QPF
0.02 0.02 0.03 0.02 0.01 0.02 0.02 0.04 0.07 0.05 0.01 0.00 0.00 0.00 0.00 0.01 0.02 0.04 0.06 0.07 0.07 0.06 0.04 0.02 0.01 0.03 0.12 0.34 0.60 0.87 0.80 0.45 0.23 0.13 0.08 0.06 0.04 0.02
0.03 0.03 0.03 0.03 0.02 0.02 0.03 0.03 0.05 0.07 0.05 0.01 0.00 0.00 0.00 0.00 0.01 0.02 0.04 0.06 0.06 0.06 0.05 0.03 0.02 0.01 0.03 0.13 0.36 0.59 0.80 0.69 0.44 0.26 0.16 0.08 0.04 0.02
0.04 0.04 0.04 0.05 0.05 0.04 0.04 0.04 0.05 0.06 0.06 0.01 0.00 0.00 0.00 0.00 0.01 0.02 0.03 0.05 0.06 0.07 0.06 0.05 0.03 0.02 0.02 0.04 0.15 0.35 0.55 0.70 0.67 0.51 0.37 0.24 0.12 0.05
0.05 0.05 0.05 0.05 0.05 0.06 0.06 0.06 0.05 0.05 0.05 0.03 0.01 0.00 0.00 0.01 0.02 0.03 0.03 0.04 0.06 0.07 0.08 0.07 0.05 0.03 0.02 0.02 0.05 0.15 0.34 0.52 0.68 0.72 0.64 0.47 0.30 0.18
0.06 0.07 0.07 0.06 0.07 0.07 0.08 0.07 0.05 0.04 0.04 0.03 0.01 0.00 0.01 0.01 0.03 0.06 0.06 0.06 0.07 0.09 0.09 0.09 0.07 0.05 0.03 0.02 0.03 0.05 0.14 0.27 0.43 0.66 0.74 0.68 0.51 0.38
0.06 0.06 0.06 0.08 0.08 0.08 0.07 0.05 0.04 0.03 0.02 0.02 0.01 0.01 0.01 0.01 0.04 0.07 0.10 0.09 0.10 0.10 0.11 0.12 0.10 0.08 0.05 0.02 0.01 0.02 0.06 0.16 0.28 0.45 0.67 0.75 0.65 0.51
0.03 0.03 0.04 0.05 0.04 0.06 0.09 0.07 0.05 0.04 0.03 0.03 0.03 0.02 0.02 0.03 0.04 0.07 0.12 0.14 0.13 0.13 0.14 0.13 0.11 0.08 0.05 0.03 0.02 0.02 0.03 0.07 0.17 0.29 0.45 0.61 0.66 0.59
0.01 0.01 0.01 0.03 0.03 0.02 0.04 0.06 0.07 0.08 0.07 0.04 0.03 0.04 0.03 0.04 0.05 0.08 0.13 0.18 0.18 0.15 0.17 0.16 0.12 0.09 0.05 0.02 0.01 0.01 0.02 0.04 0.09 0.21 0.32 0.44 0.54 0.59
0.01 0.01 0.01 0.02 0.04 0.02 0.01 0.02 0.03 0.05 0.07 0.06 0.05 0.05 0.05 0.04 0.05 0.06 0.11 0.19 0.22 0.20 0.21 0.21 0.18 0.11 0.06 0.03 0.02 0.01 0.02 0.03 0.05 0.12 0.21 0.31 0.40 0.48
0.00 0.00 0.01 0.01 0.04 0.02 0.00 0.01 0.02 0.03 0.05 0.06 0.06 0.06 0.05 0.04 0.04 0.05 0.08 0.14 0.20 0.24 0.25 0.24 0.21 0.14 0.07 0.03 0.02 0.01 0.01 0.02 0.05 0.09 0.14 0.22 0.30 0.37
0.00 0.00 0.00 0.01 0.03 0.02 0.00 0.01 0.01 0.01 0.01 0.03 0.04 0.04 0.03 0.03 0.03 0.04 0.05 0.10 0.16 0.24 0.28 0.26 0.23 0.16 0.09 0.05 0.02 0.02 0.02 0.03 0.05 0.09 0.12 0.15 0.21 0.28
0.00 0.00 0.01 0.01 0.02 0.02 0.00 0.01 0.01 0.01 0.00 0.01 0.01 0.01 0.02 0.02 0.03 0.04 0.06 0.08 0.14 0.21 0.27 0.28 0.27 0.18 0.10 0.08 0.05 0.03 0.04 0.06 0.08 0.11 0.13 0.12 0.13 0.13
0.00 0.00 0.00 0.01 0.01 0.01 0.01 0.01 0.02 0.01 0.00 0.00 0.01 0.01 0.01 0.02 0.03 0.03 0.05 0.07 0.11 0.17 0.23 0.26 0.30 0.20 0.10 0.09 0.11 0.10 0.07 0.09 0.12 0.15 0.16 0.13 0.09 0.05
0.00 0.00 0.00 0.00 0.00 0.00 0.00 0.00 0.00 0.00 0.00 0.00 0.01 0.01 0.01 0.02 0.03 0.04 0.04 0.05 0.07 0.12 0.19 0.22 0.28 0.23 0.09 0.05 0.11 0.18 0.14 0.11 0.11 0.14 0.16 0.19 0.14 0.08
0.00 0.00 0.00 0.00 0.00 0.00 0.00 0.00 0.00 0.00 0.00 0.00 0.01 0.02 0.03 0.04 0.04 0.05 0.05 0.05 0.05 0.08 0.14 0.18 0.23 0.26 0.14 0.04 0.05 0.13 0.17 0.18 0.12 0.09 0.11 0.11 0.08 0.06
0.00 0.00 0.00 0.00 0.00 0.00 0.00 0.00 0.00 0.00 0.00 0.01 0.01 0.02 0.03 0.03 0.04 0.06 0.07 0.07 0.06 0.08 0.14 0.20 0.25 0.30 0.24 0.09 0.04 0.06 0.10 0.17 0.18 0.10 0.09 0.09 0.07 0.04
0.00 0.00 0.00 0.00 0.00 0.00 0.00 0.00 0.00 0.00 0.00 0.00 0.01 0.01 0.03 0.04 0.05 0.07 0.09 0.10 0.10 0.12 0.17 0.26 0.33 0.36 0.35 0.23 0.11 0.06 0.05 0.08 0.13 0.12 0.09 0.09 0.09 0.07
0.00 0.00 0.00 0.00 0.00 0.00 0.00 0.00 0.00 0.00 0.00 0.00 0.01 0.01 0.03 0.05 0.06 0.07 0.10 0.13 0.16 0.17 0.20 0.27 0.32 0.35 0.39 0.39 0.28 0.12 0.06 0.06 0.10 0.11 0.10 0.09 0.10 0.08
0.00 0.00 0.00 0.00 0.00 0.00 0.00 0.00 0.00 0.00 0.00 0.00 0.00 0.01 0.02 0.04 0.06 0.08 0.11 0.14 0.18 0.21 0.23 0.26 0.28 0.29 0.35 0.47 0.52 0.32 0.14 0.09 0.10 0.13 0.13 0.11 0.09 0.08
0.00 0.00 0.00 0.00 0.00 0.00 0.00 0.00 0.00 0.00 0.00 0.00 0.00 0.01 0.02 0.03 0.05 0.08 0.10 0.14 0.18 0.22 0.25 0.27 0.31 0.32 0.31 0.33 0.42 0.49 0.33 0.15 0.09 0.11 0.16 0.17 0.15 0.10
0.00 0.00 0.00 0.00 0.00 0.00 0.00 0.00 0.00 0.00 0.00 0.00 0.00 0.00 0.01 0.02 0.04 0.07 0.09 0.13 0.17 0.21 0.24 0.28 0.33 0.33 0.32 0.26 0.25 0.36 0.42 0.32 0.15 0.10 0.10 0.12 0.13 0.11
0.01 0.01 0.00 0.00 0.00 0.00 0.00 0.00 0.00 0.00 0.00 0.00 0.00 0.00 0.00 0.01 0.03 0.05 0.08 0.10 0.15 0.20 0.23 0.27 0.31 0.34 0.37 0.36 0.33 0.30 0.34 0.37 0.32 0.19 0.09 0.05 0.04 0.04
0.03 0.02 0.01 0.01 0.00 0.00 0.00 0.00 0.00 0.00 0.00 0.00 0.00 0.00 0.00 0.00 0.01 0.03 0.05 0.08 0.12 0.16 0.20 0.24 0.29 0.33 0.39 0.42 0.38 0.31 0.25 0.24 0.22 0.18 0.14 0.09 0.04 0.02
MSLP
1019.24 1018.79 1018.27 1017.62 1016.85 1015.94 1014.92 1013.82 1012.70 1011.60 1010.57 1009.64 1008.84 1008.16 1007.58 1007.08 1006.64 1006.24 1005.86 1005.50 1005.18 1004.91 1004.73 1004.64 1004.68 1004.84 1005.13 1005.55 1006.08 1006.72 1007.45 1008.26 1009.14 1010.07 1011.03 1012.00 1012.96 1013.88
1018.43 1018.02 1017.53 1016.93 1016.20 1015.33 1014.35 1013.29 1012.21 1011.16 1010.17 1009.29 1008.52 1007.85 1007.28 1006.77 1006.31 1005.87 1005.45 1005.06 1004.72 1004.44 1004.27 1004.21 1004.27 1004.47 1004.80 1005.24 1005.79 1006.43 1007.14 1007.93 1008.77 1009.68 1010.62 1011.59 1012.55 1013.50
1017.83 1017.43 1016.96 1016.38 1015.67 1014.84 1013.91 1012.92 1011.91 1010.93 1010.01 1009.18 1008.44 1007.78 1007.19 1006.63 1006.08 1005.56 1005.05 1004.58 1004.17 1003.87 1003.68 1003.65 1003.75 1004.01 1004.39 1004.89 1005.47 1006.13 1006.84 1007.62 1008.44 1009.31 1010.23 1011.18 1012.15 1013.11
1017.57 1017.15 1016.67 1016.10 1015.41 1014.61 1013.73 1012.80 1011.87 1010.98 1010.13 1009.36 1008.64 1007.98 1007.33 1006.69 1006.04 1005.38 1004.74 1004.15 1003.66 1003.29 1003.08 1003.05 1003.19 1003.51 1003.95 1004.51 1005.14 1005.82 1006.54 1007.30 1008.09 1008.94 1009.83 1010.76 1011.73 1012.71
1017.68 1017.24 1016.73 1016.13 1015.44 1014.67 1013.83 1012.97 1012.11 1011.29 1010.52 1009.79 1009.10 1008.42 1007.71 1006.97 1006.19 1005.40 1004.61 1003.89 1003.28 1002.83 1002.57 1002.53 1002.70 1003.04 1003.54 1004.14 1004.80 1005.50 1006.22 1006.96 1007.72 1008.53 1009.38 1010.30 1011.26 1012.26
1018.11 1017.63 1017.08 1016.45 1015.75 1014.97 1014.16 1013.35 1012.55 1011.80 1011.09 1010.41 1009.73 1009.03 1008.27 1007.45 1006.56 1005.63 1004.71 1003.85 1003.13 1002.59 1002.28 1002.20 1002.36 1002.71 1003.21 1003.82 1004.49 1005.18 1005.88 1006.59 1007.31 1008.07 1008.89 1009.79 1010.75 1011.77
1018.75 1018.21 1017.62 1016.95 1016.21 1015.43 1014.62 1013.83 1013.08 1012.37 1011.71 1011.07 1010.42 1009.71 1008.93 1008.05 1007.09 1006.07 1005.05 1004.09 1003.28 1002.66 1002.27 1002.14 1002.24 1002.56 1003.03 1003.61 1004.24 1004.89 1005.54 1006.19 1006.86 1007.58 1008.37 1009.24 1010.22 1011.27
1019.42 1018.84 1018.19 1017.48 1016.71 1015.90 1015.09 1014.31 1013.58 1012.91 1012.28 1011.68 1011.06 1010.37 1009.60 1008.71 1007.73 1006.67 1005.60 1004.59 1003.71 1003.02 1002.56 1002.35 1002.38 1002.62 1003.01 1003.51 1004.06 1004.64 1005.21 1005.80 1006.42 1007.09 1007.86 1008.73 1009.71 1010.81
1020.00 1019.38 1018.69 1017.94 1017.13 1016.30 1015.48 1014.69 1013.97 1013.32 1012.73 1012.16 1011.58 1010.94 1010.21 1009.36 1008.40 1007.37 1006.31 1005.28 1004.37 1003.63 1003.10 1002.80 1002.73 1002.85 1003.13 1003.52 1003.97 1004.44 1004.94 1005.46 1006.03 1006.68 1007.43 1008.32 1009.34 1010.48
1020.38 1019.74 1019.04 1018.27 1017.45 1016.60 1015.76 1014.97 1014.25 1013.61 1013.03 1012.50 1011.96 1011.38 1010.71 1009.94 1009.05 1008.08 1007.07 1006.07 1005.16 1004.39 1003.79 1003.40 1003.22 1003.21 1003.36 1003.62 1003.95 1004.33 1004.75 1005.23 1005.78 1006.43 1007.20 1008.11 1009.18 1010.38
1020.55 1019.93 1019.24 1018.48 1017.67 1016.82 1015.99 1015.19 1014.47 1013.82 1013.26 1012.74 1012.24 1011.71 1011.11 1010.42 1009.63 1008.74 1007.80 1006.86 1005.96 1005.16 1004.52 1004.04 1003.74 1003.61 1003.63 1003.77 1004.00 1004.32 1004.70 1005.17 1005.73 1006.41 1007.23 1008.21 1009.33 1010.59
1020.57 1020.00 1019.36 1018.66 1017.88 1017.07 1016.24 1015.45 1014.72 1014.07 1013.49 1012.97 1012.49 1011.99 1011.45 1010.82 1010.11 1009.30 1008.43 1007.54 1006.66 1005.86 1005.17 1004.62 1004.23 1003.99 1003.91 1003.97 1004.14 1004.43 1004.82 1005.31 1005.94 1006.69 1007.59 1008.64 1009.83 1011.14
1020.52 1020.04 1019.50 1018.87 1018.17 1017.41 1016.63 1015.85 1015.11 1014.43 1013.83 1013.28 1012.78 1012.28 1011.75 1011.16 1010.50 1009.75 1008.93 1008.07 1007.21 1006.40 1005.68 1005.08 1004.62 1004.32 1004.18 1004.20 1004.37 1004.68 1005.12 1005.71 1006.43 1007.29 1008.29 1009.43 1010.68 1012.02
1020.49 1020.13 1019.71 1019.20 1018.60 1017.92 1017.19 1016.43 1015.69 1014.98 1014.33 1013.73 1013.18 1012.64 1012.08 1011.48 1010.82 1010.09 1009.29 1008.45 1007.61 1006.79 1006.05 1005.42 1004.94 1004.61 1004.46 1004.50 1004.71 1005.09 1005.63 1006.33 1007.18 1008.17 1009.28 1010.50 1011.80 1013.15
1020.55 1020.32 1020.04 1019.66 1019.18 1018.59 1017.92 1017.20 1016.45 1015.71 1015.01 1014.34 1013.71 1013.09 1012.48 1011.83 1011.13 1010.38 1009.58 1008.74 1007.89 1007.07 1006.33 1005.70 1005.22 1004.91 1004.79 1004.88 1005.18 1005.67 1006.33 1007.17 1008.15 1009.26 1010.47 1011.75 1013.08 1014.43
1020.69 1020.60 1020.45 1020.21 1019.85 1019.36 1018.76 1018.08 1017.34 1016.58 1015.82 1015.08 1014.37 1013.66 1012.96 1012.24 1011.49 1010.69 1009.86 1009.00 1008.15 1007.33 1006.60 1005.99 1005.54 1005.28 1005.23 1005.40 1005.79 1006.40 1007.19 1008.16 1009.26 1010.47 1011.75 1013.07 1014.40 1015.71
1020.88 1020.91 1020.87 1020.75 1020.50 1020.11 1019.59 1018.96 1018.25 1017.49 1016.70 1015.91 1015.12 1014.34 1013.56 1012.76 1011.94 1011.09 1010.23 1009.35 1008.49 1007.69 1006.98 1006.40 1006.00 1005.79 1005.82 1006.07 1006.57 1007.27 1008.17 1009.23 1010.42 1011.69 1013.00 1014.33 1015.63 1016.88
1021.08 1021.17 1021.22 1021.18 1021.02 1020.72 1020.29 1019.73 1019.07 1018.33 1017.55 1016.74 1015.92 1015.10 1014.26 1013.41 1012.55 1011.66 1010.76 1009.87 1009.02 1008.23 1007.55 1007.01 1006.66 1006.51 1006.60 1006.93 1007.49 1008.26 1009.22 1010.33 1011.55 1012.83 1014.14 1015.43 1016.68 1017.86
1021.23 1021.34 1021.42 1021.43 1021.33 1021.11 1020.76 1020.28 1019.70 1019.04 1018.31 1017.54 1016.74 1015.91 1015.07 1014.20 1013.32 1012.42 1011.52 1010.63 1009.78 1009.02 1008.36 1007.86 1007.55 1007.45 1007.58 1007.94 1008.53 1009.33 1010.30 1011.40 1012.60 1013.86 1015.12 1016.36 1017.54 1018.64
1021.29 1021.37 1021.43 1021.46 1021.40 1021.24 1020.97 1020.59 1020.12 1019.56 1018.93 1018.25 1017.52 1016.76 1015.96 1015.12 1014.26 1013.38 1012.49 1011.62 1010.79 1010.05 1009.42 1008.95 1008.66 1008.58 1008.72 1009.09 1009.67 1010.45 1011.38 1012.44 1013.58 1014.77 1015.96 1017.13 1018.24 1019.28
1021.27 1021.27 1021.28 1021.28 1021.23 1021.12 1020.93 1020.67 1020.32 1019.90 1019.42 1018.87 1018.27 1017.61 1016.89 1016.13 1015.32 1014.49 1013.63 1012.79 1012.00 1011.28 1010.68 1010.23 1009.95 1009.87 1010.00 1010.35 1010.89 1011.61 1012.48 1013.46 1014.52 1015.62 1016.73 1017.82 1018.87 1019.85
1021.19 1021.08 1021.01 1020.95 1020.89 1020.81 1020.69 1020.54 1020.33 1020.07 1019.75 1019.38 1018.93 1018.42 1017.83 1017.17 1016.45 1015.68 1014.88 1014.09 1013.33 1012.64 1012.06 1011.62 1011.35 1011.26 1011.37 1011.67 1012.16 1012.81 1013.59 1014.49 1015.45 1016.46 1017.49 1018.51 1019.50 1020.44
1021.08 1020.84 1020.66 1020.52 1020.43 1020.36 1020.31 1020.25 1020.19 1020.09 1019.96 1019.76 1019.49 1019.14 1018.70 1018.17 1017.55 1016.87 1016.14 1015.40 1014.69 1014.04 1013.49 1013.06 1012.80 1012.70 1012.79 1013.05 1013.48 1014.06 1014.77 1015.57 1016.44 1017.37 1018.32 1019.27 1020.21 1021.12
Thickness
5132 5145 5157 5170 5183 5196 5209 5224 5241 5264 5288 5311 5334 5360 5383 5410 5438 5465 5491 5514 5534 5551 5569 5586 5603 5617 5629 5636 5641 5644 5643 5643 5646 5649 5650 5651 5651 5652
5132 5144 5155 5167 5180 5192 5205 5219 5234 5252 5276 5301 5322 5345 5369 5395 5424 5451 5477 5501 5522 5540 5558 5576 5592 5608 5620 5629 5634 5637 5637 5638 5639 5642 5645 5646 5646 5646
5134 5144 5155 5166 5177 5189 5201 5214 5229 5246 5268 5292 5315 5338 5361 5385 5413 5440 5466 5490 5510 5529 5547 5565 5583 5599 5610 5620 5627 5630 5634 5635 5636 5637 5639 5641 5641 5641
5137 5145 5154 5165 5174 5186 5197 5210 5224 5241 5260 5283 5308 5332 5355 5377 5403 5430 5456 5480 5500 5520 5537 5556 5574 5589 5600 5610 5619 5625 5629 5630 5632 5633 5635 5637 5636 5635
5137 5144 5152 5162 5172 5182 5194 5206 5220 5238 5256 5276 5301 5326 5350 5372 5395 5421 5446 5468 5490 5511 5529 5548 5565 5579 5591 5601 5610 5618 5624 5627 5630 5632 5632 5632 5632 5630
5134 5141 5150 5159 5169 5179 5191 5202 5216 5233 5251 5271 5293 5319 5342 5365 5387 5410 5436 5457 5479 5502 5520 5539 5556 5569 5582 5592 5604 5612 5618 5622 5626 5629 5629 5629 5628 5626
5130 5137 5146 5156 5167 5176 5188 5199 5212 5228 5245 5264 5284 5308 5331 5353 5374 5396 5422 5446 5470 5491 5510 5529 5545 5558 5570 5581 5591 5601 5609 5616 5621 5624 5626 5626 5625 5622
5125 5133 5143 5152 5163 5171 5183 5196 5208 5223 5240 5255 5274 5294 5316 5338 5360 5383 5408 5436 5459 5478 5496 5516 5532 5545 5558 5570 5581 5590 5599 5606 5613 5618 5622 5622 5622 5620
5121 5128 5139 5148 5159 5168 5178 5191 5203 5218 5234 5249 5266 5286 5308 5329 5350 5373 5394 5417 5441 5460 5481 5504 5521 5535 5547 5559 5569 5579 5588 5597 5604 5609 5613 5614 5614 5613
5119 5126 5135 5145 5158 5169 5177 5189 5202 5214 5229 5245 5264 5283 5304 5324 5342 5359 5380 5404 5428 5449 5469 5491 5508 5523 5536 5548 5558 5568 5578 5586 5593 5599 5603 5604 5604 5603
5119 5125 5134 5144 5158 5169 5177 5188 5202 5214 5228 5244 5262 5281 5299 5318 5335 5352 5372 5396 5422 5442 5459 5477 5495 5510 5523 5535 5547 5557 5567 5575 5582 5588 5592 5594 5594 5591
5120 5125 5134 5146 5156 5168 5176 5187 5202 5213 5227 5243 5260 5277 5294 5310 5327 5340 5357 5378 5406 5431 5448 5464 5481 5495 5509 5521 5534 5545 5554 5562 5570 5576 5581 5583 5583 5580
5122 5127 5135 5146 5155 5166 5176 5187 5200 5212 5225 5241 5257 5274 5290 5306 5321 5334 5349 5365 5387 5413 5432 5449 5465 5480 5497 5510 5520 5532 5542 5550 5556 5561 5565 5569 5572 5572
5124 5129 5136 5146 5154 5164 5175 5187 5198 5211 5224 5238 5253 5269 5284 5299 5314 5330 5345 5361 5378 5397 5416 5432 5451 5468 5486 5501 5508 5516 5525 5534 5541 5545 5547 5550 5552 5553
5129 5134 5139 5146 5153 5162 5173 5185 5195 5208 5220 5234 5247 5260 5274 5290 5307 5325 5342 5359 5376 5392 5409 5426 5442 5458 5476 5492 5499 5504 5509 5512 5520 5526 5527 5529 5531 5533
5134 5136 5140 5146 5154 5162 5171 5181 5191 5203 5215 5227 5240 5254 5269 5284 5299 5314 5330 5347 5367 5387 5403 5419 5436 5450 5464 5479 5490 5490 5495 5496 5498 5506 5509 5507 5508 5511
5143 5141 5143 5148 5155 5162 5170 5178 5188 5199 5210 5222 5234 5247 5261 5275 5288 5302 5316 5333 5351 5370 5389 5406 5423 5436 5447 5460 5470 5474 5480 5483 5484 5488 5493 5489 5485 5487
5150 5144 5145 5148 5153 5159 5166 5174 5183 5193 5203 5215 5226 5237 5250 5263 5275 5289 5303 5317 5333 5351 5370 5390 5409 5423 5431 5435 5444 5458 5465 5468 5467 5470 5477 5477 5466 5465
5154 5149 5147 5148 5152 5157 5163 5170 5178 5188 5197 5208 5218 5229 5241 5252 5264 5275 5288 5302 5317 5335 5353 5374 5394 5414 5424 5420 5416 5434 5449 5453 5454 5452 5454 5458 5455 5450
5163 5156 5153 5152 5153 5156 5161 5167 5175 5183 5192 5201 5211 5221 5231 5242 5253 5263 5274 5287 5301 5319 5337 5356 5373 5392 5407 5407 5406 5411 5424 5437 5444 5441 5436 5434 5434 5433
5173 5167 5162 5158 5157 5158 5160 5165 5171 5178 5186 5194 5204 5212 5222 5232 5242 5252 5262 5275 5289 5304 5320 5336 5354 5371 5385 5394 5396 5396 5403 5412 5424 5432 5430 5427 5421 5418
5181 5176 5171 5166 5163 5160 5160 5163 5168 5174 5180 5188 5196 5205 5214 5223 5232 5242 5252 5263 5275 5289 5305 5321 5338 5355 5370 5381 5383 5385 5388 5392 5397 5404 5411 5419 5421 5414
5186 5184 5180 5175 5170 5165 5163 5163 5165 5169 5175 5181 5189 5197 5206 5215 5223 5232 5242 5252 5264 5276 5291 5305 5320 5334 5345 5356 5364 5369 5374 5379 5384 5389 5390 5395 5402 5403